Location: Unspecified
(0.0000°N, 0.0000°E)
Time: 18:52:40
(UTC+00:00)

deb r/b Ablestar - Pass Details

Date: 22 April 2026
Orbit: 907 x 1192 km, 66.9° (Epoch: 12 May)

Event Time Altitude Azimuth Distance (km) Brightness Sun altitude
Rises 20:26:54 0° 350° (N) 4,049 ? -36.1°
Reaches altitude 10° 20:29:45 10° 355° (N) 3,068 ? -36.8°
Enters shadow 20:32:09 22° 3° (N) 2,285 ? -37.4°
